User: anonymous   Login
Location: Unspecified
(0.0000°N, 0.0000°E)
Time: 02:50:38
(UTC+00:00)
Language:

Saudisat 1A - Orbit

View from above orbital plane
View from above orbital plane
View from above satellite
View from above satellite

Ground track
Ground track

The orbit data is extracted from the following two-line orbital elements,

1 26546U 00057B   19113.57261626 +.00000042 +00000-0 +20498-4 0  9998
2 26546 064.5561 020.8006 0041531 296.9915 062.6957 14.90863484007327
Epoch (UTC): 23 April 2019 13:44:34
Eccentricity: 0.0041531
inclination: 64.5561°
perigee height: 566 km
apogee height: 624 km
right ascension of ascending node: 20.8006°
argument of perigee: 296.9915°
revolutions per day: 14.90863484
mean anomaly at epoch: 62.6957°
orbit number at epoch: 732

The dashed part of the orbit path shows where the satellite is in the earth's shadow,  

DLR